Weather History for KMRF - April, 2014

Change the Weather History Date:

Monday, April 14, 2014

  Actual Average Record
Temperature  
Mean Temperature 48 °F -  
Max Temperature 60 °F 73 °F 89 °F (2006)
Min Temperature 35 °F 42 °F 26 °F (1997)
Degree Days  
Heating Degree Days 18    
Moisture  
Dew Point 19 °F    
Average Humidity 38    
Maximum Humidity 70    
Minimum Humidity 13    
Precipitation  
Precipitation 0.00 in - - ()
Sea Level Pressure  
Sea Level Pressure 30.13 in    
Wind  
Wind Speed 16 mph (NNE)    
Max Wind Speed 26 mph    
Max Gust Speed 30 mph    
Visibility 9 miles    
Events      
Averages and records for this station are not official NWS values.
T = Trace of Precipitation, MM = Missing Value Source: NWS Daily Summary

Daily Weather History Graph

Daily Weather History Graph

Search for Another Location

Airport or City:

Trip Planner

Search our weather history database for the weather conditions in past years. The results will help you decide how hot, cold, wet, or windy it might be!

Date:

Astronomy

Apr. 14, 2014 Rise Set
Actual Time 7:29 AM CDT 8:23 PM CDT
Civil Twilight 7:05 AM CDT 8:47 PM CDT
Nautical Twilight 6:36 AM CDT 9:16 PM CDT
Astronomical Twilight 6:06 AM CDT 9:46 PM CDT
Moon 8:05 PM CDT (4/14) 7:00 AM CDT (4/14)
Length of Visible Light 13h 42m
Length of Day
12h 53m
Full, 100% of the Moon is Illuminated
Apr 14
Full
Apr 15
Full
Apr 22
Last Quarter
Apr 29
New
May 6
First Quarter

Hourly Weather History & Observations

Time (CDT) Temp. Windchill Dew Point Humidity Pressure Visibility Wind Dir Wind Speed Gust Speed Precip Events Conditions
12:15 AM 60.8 °F - 10.4 °F 14% 29.89 in 10.0 mi West 13.8 mph - N/A   Clear
12:35 AM 60.8 °F - 10.4 °F 14% 29.89 in 10.0 mi West 12.7 mph - N/A   Clear
12:55 AM 60.8 °F - 10.4 °F 14% 29.90 in 10.0 mi West 11.5 mph - N/A   Clear
1:15 AM 60.8 °F - 8.6 °F 13% 29.90 in 10.0 mi WNW 4.6 mph - N/A   Clear
1:35 AM 48.2 °F - 3.2 °F 16% 29.91 in 10.0 mi ENE 4.6 mph - N/A   Clear
1:55 AM 46.4 °F 45.2 °F 6.8 °F 20% 29.91 in 10.0 mi NNE 3.5 mph - N/A   Clear
2:15 AM 48.2 °F - 6.8 °F 19% 29.91 in 10.0 mi WNW 3.5 mph - N/A   Clear
2:35 AM 53.6 °F - 10.4 °F 18% 29.91 in 10.0 mi NNW 3.5 mph - N/A   Clear
2:55 AM 57.2 °F - 10.4 °F 16% 29.92 in 10.0 mi NW 5.8 mph - N/A   Clear
3:15 AM 57.2 °F - 8.6 °F 14% 29.92 in 10.0 mi NW 8.1 mph - N/A   Clear
3:35 AM 57.2 °F - 8.6 °F 14% 29.91 in 10.0 mi WNW 5.8 mph - N/A   Clear
3:55 AM 57.2 °F - 10.4 °F 16% 29.93 in 10.0 mi NW 3.5 mph - N/A   Clear
4:15 AM 57.2 °F - 10.4 °F 16% 29.94 in 10.0 mi NW 10.4 mph - N/A   Clear
4:35 AM 57.2 °F - 15.8 °F 20% 29.96 in 8.0 mi NNE 19.6 mph 28.8 mph N/A   Clear
4:55 AM 50.0 °F - 23.0 °F 35% 29.97 in 4.0 mi NNE 24.2 mph - N/A   Clear
5:15 AM 44.6 °F 35.7 °F 26.6 °F 49% 29.98 in 2.5 mi North 24.2 mph 28.8 mph N/A   Mostly Cloudy
5:35 AM 42.8 °F 33.8 °F 28.4 °F 57% 29.99 in 3.0 mi NE 21.9 mph 29.9 mph N/A   Overcast
5:55 AM 39.2 °F 28.0 °F 28.4 °F 65% 30.00 in 3.0 mi NNE 26.5 mph 29.9 mph N/A   Overcast
6:15 AM 39.2 °F 28.7 °F 26.6 °F 61% 30.02 in 3.0 mi NE 23.0 mph 27.6 mph N/A   Overcast
6:35 AM 37.4 °F 26.6 °F 26.6 °F 65% 30.03 in 5.0 mi NNE 21.9 mph 26.5 mph N/A   Mostly Cloudy
6:55 AM 35.6 °F 25.9 °F 26.6 °F 70% 30.05 in 5.0 mi NNE 16.1 mph - N/A   Partly Cloudy
7:15 AM 35.6 °F 24.5 °F 26.6 °F 70% 30.05 in 7.0 mi NNE 20.7 mph 27.6 mph N/A   Clear
7:35 AM 35.6 °F 24.5 °F 26.6 °F 70% 30.07 in 6.0 mi NNE 20.7 mph - N/A   Clear
7:55 AM 35.6 °F 24.8 °F 26.6 °F 70% 30.08 in 6.0 mi NNE 19.6 mph 26.5 mph N/A   Clear
8:15 AM 35.6 °F 24.2 °F 26.6 °F 70% 30.09 in 7.0 mi North 21.9 mph 25.3 mph N/A   Clear
8:35 AM 35.6 °F 24.2 °F 26.6 °F 70% 30.11 in 6.0 mi North 21.9 mph 25.3 mph N/A   Clear
8:55 AM 37.4 °F 26.6 °F 26.6 °F 65% 30.12 in 6.0 mi North 21.9 mph 26.5 mph N/A   Clear
9:15 AM 37.4 °F 25.9 °F 26.6 °F 65% 30.13 in 6.0 mi North 25.3 mph - N/A   Clear
9:35 AM 39.2 °F 28.7 °F 26.6 °F 61% 30.14 in 6.0 mi NNE 23.0 mph 28.8 mph N/A   Clear
9:55 AM 39.2 °F 28.0 °F 26.6 °F 61% 30.15 in 7.0 mi NNE 26.5 mph - N/A   Clear
10:15 AM 39.2 °F 28.7 °F 26.6 °F 61% 30.17 in 7.0 mi NNE 23.0 mph 26.5 mph N/A   Clear
10:35 AM 39.2 °F 28.3 °F 26.6 °F 61% 30.17 in 9.0 mi North 25.3 mph - N/A   Clear
10:55 AM 42.8 °F 33.8 °F 24.8 °F 49% 30.18 in 10.0 mi NNE 21.9 mph - N/A   Clear
11:15 AM 42.8 °F 34.0 °F 23.0 °F 46% 30.19 in 10.0 mi NNE 20.7 mph - N/A   Clear
11:35 AM 42.8 °F 33.8 °F 23.0 °F 46% 30.20 in 10.0 mi NNE 21.9 mph - N/A   Clear
11:55 AM 44.6 °F 35.5 °F 23.0 °F 43% 30.20 in 10.0 mi NE 25.3 mph - N/A   Clear
12:15 PM 44.6 °F 35.7 °F 23.0 °F 43% 30.20 in 10.0 mi NNE 24.2 mph 28.8 mph N/A   Clear
12:35 PM 44.6 °F 35.9 °F 23.0 °F 43% 30.20 in 10.0 mi NNE 23.0 mph 28.8 mph N/A   Clear
12:55 PM 46.4 °F 38.3 °F 23.0 °F 40% 30.20 in 10.0 mi NNE 23.0 mph - N/A   Clear
1:15 PM 48.2 °F - 23.0 °F 37% 30.20 in 10.0 mi NNE 21.9 mph - N/A   Clear
1:35 PM 48.2 °F - 23.0 °F 37% 30.20 in 10.0 mi NNE 23.0 mph 26.5 mph N/A   Clear
1:55 PM 48.2 °F - 23.0 °F 37% 30.20 in 10.0 mi NNE 24.2 mph - N/A   Clear
2:15 PM 50.0 °F - 23.0 °F 35% 30.20 in 10.0 mi NNE 24.2 mph - N/A   Clear
2:35 PM 51.8 °F - 23.0 °F 33% 30.20 in 10.0 mi NNE 21.9 mph - N/A   Clear
2:55 PM 50.0 °F - 21.2 °F 32% 30.20 in 10.0 mi NNE 23.0 mph - N/A   Clear
3:15 PM 51.8 °F - 21.2 °F 30% 30.20 in 10.0 mi NNE 25.3 mph - N/A   Clear
3:35 PM 51.8 °F - 21.2 °F 30% 30.21 in 10.0 mi NNE 24.2 mph 28.8 mph N/A   Clear
3:55 PM 51.8 °F - 21.2 °F 30% 30.21 in 10.0 mi NNE 21.9 mph 27.6 mph N/A   Clear
4:15 PM 51.8 °F - 21.2 °F 30% 30.20 in 10.0 mi NE 21.9 mph - N/A   Clear
4:35 PM 51.8 °F - 21.2 °F 30% 30.20 in 10.0 mi NNE 20.7 mph 27.6 mph N/A   Clear
4:55 PM 51.8 °F - 21.2 °F 30% 30.21 in 10.0 mi NNE 23.0 mph - N/A   Clear
5:15 PM 51.8 °F - 19.4 °F 28% 30.20 in 10.0 mi NNE 23.0 mph 28.8 mph N/A   Clear
5:35 PM 51.8 °F - 19.4 °F 28% 30.21 in 10.0 mi NNE 26.5 mph 29.9 mph N/A   Clear
5:55 PM 51.8 °F - 19.4 °F 28% 30.22 in 10.0 mi NNE 21.9 mph - N/A   Clear
6:15 PM 50.0 °F - 17.6 °F 28% 30.22 in 10.0 mi NE 21.9 mph 27.6 mph N/A   Clear
6:35 PM 50.0 °F - 17.6 °F 28% 30.22 in 10.0 mi NNE 21.9 mph 27.6 mph N/A   Clear
6:55 PM 50.0 °F - 17.6 °F 28% 30.22 in 10.0 mi NNE 25.3 mph - N/A   Clear
7:15 PM 48.2 °F - 17.6 °F 30% 30.23 in 10.0 mi NNE 20.7 mph 27.6 mph N/A   Clear
7:35 PM 46.4 °F 39.2 °F 17.6 °F 32% 30.24 in 10.0 mi NNE 18.4 mph 24.2 mph N/A   Clear
7:55 PM 46.4 °F 39.0 °F 15.8 °F 29% 30.25 in 10.0 mi NNE 19.6 mph 25.3 mph N/A   Clear
8:15 PM 44.6 °F 36.4 °F 15.8 °F 31% 30.25 in 10.0 mi NNE 20.7 mph 28.8 mph N/A   Clear
8:35 PM 42.8 °F 35.1 °F 15.8 °F 34% 30.26 in 10.0 mi NNE 16.1 mph - N/A   Clear
8:55 PM 42.8 °F 34.5 °F 15.8 °F 34% 30.27 in 10.0 mi NNE 18.4 mph 21.9 mph N/A   Clear
9:15 PM 42.8 °F 35.4 °F 15.8 °F 34% 30.28 in 10.0 mi NNE 15.0 mph - N/A   Clear
9:35 PM 41.0 °F 33.5 °F 15.8 °F 36% 30.29 in 10.0 mi NNE 13.8 mph - N/A   Clear
9:55 PM 41.0 °F 32.8 °F 15.8 °F 36% 30.30 in 10.0 mi NNE 16.1 mph - N/A   Clear
10:15 PM 41.0 °F 33.1 °F 15.8 °F 36% 30.31 in 10.0 mi NNE 15.0 mph 19.6 mph N/A   Clear
10:35 PM 41.0 °F 33.1 °F 15.8 °F 36% 30.32 in 10.0 mi NNE 15.0 mph 23.0 mph N/A   Clear
10:55 PM 39.2 °F 30.2 °F 15.8 °F 39% 30.32 in 10.0 mi NNE 17.3 mph 21.9 mph N/A   Clear
11:15 PM 39.2 °F 31.6 °F 15.8 °F 39% 30.33 in 10.0 mi NNE 12.7 mph 16.1 mph N/A   Clear
11:35 PM 39.2 °F 29.6 °F 14.0 °F 36% 30.32 in 10.0 mi NNE 19.6 mph - N/A   Clear
11:55 PM 37.4 °F 29.3 °F 14.0 °F 38% 30.34 in 10.0 mi NNE 12.7 mph - N/A   Clear